DLH47L ELLX-EDDH

Flight info

Callsign DLH47L
Flight time 1h 8m
Altitude 35000
Route DIK N853 ONUNE/N0407F230 N853 HMM M170 BASUM/N0454F340 Y850 PIXUR/N0455F350 Y850 MUBZI M105 RIBSO RIBSO7A
Aircraft B739/M-SDE2E3FGHIRWXY/LB1

Departure

Time 2026-05-07 19:20
Airport Luxembourg-Findel International Airport (ELLX)

Arrival

Time 2026-05-07 20:28
Airport Hamburg Helmut Schmidt Airport (EDDH)
Time Latitude Longitude Altitude Speed Heading
2026-05-07 18:42 49.63233 6.21315 1229 ft 0 kts 60°
2026-05-07 19:04 49.63227 6.21298 1229 ft 4 kts 51°
2026-05-07 19:04 49.63215 6.21278 1229 ft 0 kts 45°
2026-05-07 19:05 49.63233 6.21315 1229 ft 0 kts 60°
2026-05-07 19:06 49.63230 6.21306 1229 ft 4 kts 60°
2026-05-07 19:07 49.63219 6.21277 1229 ft 4 kts 62°
2026-05-07 19:07 49.63214 6.21249 1230 ft 5 kts 136°
2026-05-07 19:07 49.63234 6.21229 1229 ft 4 kts 150°
2026-05-07 19:07 49.63239 6.21225 1229 ft 2 kts 150°
2026-05-07 19:12 49.63231 6.21232 1229 ft 4 kts 150°
2026-05-07 19:12 49.63203 6.21257 1231 ft 5 kts 150°
2026-05-07 19:12 49.63173 6.21283 1231 ft 5 kts 150°
2026-05-07 19:12 49.63144 6.21308 1230 ft 5 kts 150°
2026-05-07 19:13 49.63115 6.21334 1230 ft 5 kts 150°
2026-05-07 19:13 49.63087 6.21358 1230 ft 5 kts 150°
2026-05-07 19:13 49.63058 6.21387 1229 ft 6 kts 147°
2026-05-07 19:13 49.63024 6.21441 1227 ft 9 kts 107°
2026-05-07 19:14 49.63047 6.21548 1225 ft 13 kts 63°
2026-05-07 19:14 49.63088 6.21680 1224 ft 15 kts 65°
2026-05-07 19:14 49.63131 6.21819 1225 ft 14 kts 63°
2026-05-07 19:14 49.63172 6.21952 1227 ft 13 kts 65°
2026-05-07 19:15 49.63212 6.22080 1227 ft 13 kts 64°
2026-05-07 19:15 49.63251 6.22208 1225 ft 14 kts 64°
2026-05-07 19:15 49.63293 6.22341 1221 ft 14 kts 64°
2026-05-07 19:15 49.63340 6.22491 1216 ft 17 kts 61°
2026-05-07 19:16 49.63398 6.22647 1214 ft 16 kts 61°
2026-05-07 19:16 49.63452 6.22796 1214 ft 16 kts 59°
2026-05-07 19:16 49.63506 6.22940 1213 ft 15 kts 60°
2026-05-07 19:16 49.63558 6.23078 1212 ft 15 kts 60°
2026-05-07 19:17 49.63603 6.23199 1212 ft 8 kts 60°
2026-05-07 19:17 49.63631 6.23274 1212 ft 8 kts 61°
2026-05-07 19:17 49.63659 6.23352 1211 ft 9 kts 60°
2026-05-07 19:17 49.63642 6.23452 1211 ft 12 kts 147°
2026-05-07 19:18 49.63574 6.23513 1214 ft 11 kts 150°
2026-05-07 19:18 49.63523 6.23544 1215 ft 6 kts 192°
2026-05-07 19:18 49.63510 6.23491 1215 ft 6 kts 263°
2026-05-07 19:18 49.63503 6.23465 1215 ft 0 kts 240°
2026-05-07 19:19 49.63462 6.23355 1213 ft 40 kts 240°
2026-05-07 19:19 49.63198 6.22645 1209 ft 108 kts 240°
2026-05-07 19:19 49.62735 6.21394 1228 ft 157 kts 241°
2026-05-07 19:20 49.62163 6.19812 1505 ft 175 kts 241°
2026-05-07 19:20 49.61555 6.18111 1874 ft 196 kts 239°
2026-05-07 19:20 49.60810 6.16191 2138 ft 219 kts 238°
2026-05-07 19:20 49.60006 6.14120 2585 ft 229 kts 239°
2026-05-07 19:21 49.59181 6.11974 3080 ft 238 kts 239°
2026-05-07 19:21 49.58329 6.09745 3628 ft 243 kts 239°
2026-05-07 19:21 49.57467 6.07484 4274 ft 246 kts 239°
2026-05-07 19:21 49.56764 6.05021 4698 ft 261 kts 261°
2026-05-07 19:22 49.56886 6.02240 5297 ft 269 kts 290°
2026-05-07 19:22 49.57857 5.99814 6192 ft 268 kts 316°
2026-05-07 19:22 49.59453 5.98336 6997 ft 272 kts 344°
2026-05-07 19:22 49.61349 5.98229 7692 ft 279 kts 13°
2026-05-07 19:23 49.63200 5.99212 8455 ft 284 kts 20°
2026-05-07 19:23 49.65052 6.00354 9181 ft 290 kts 21°
2026-05-07 19:23 49.66941 6.01532 9930 ft 295 kts 20°
2026-05-07 19:23 49.68851 6.02708 10463 ft 307 kts 20°
2026-05-07 19:24 49.70915 6.03960 10640 ft 330 kts 20°
2026-05-07 19:24 49.73134 6.05290 10818 ft 353 kts 20°
2026-05-07 19:24 49.75500 6.06700 11018 ft 372 kts 20°
2026-05-07 19:24 49.77950 6.08156 11497 ft 381 kts 20°
2026-05-07 19:25 49.80437 6.09633 12172 ft 384 kts 20°
2026-05-07 19:25 49.82944 6.11121 12896 ft 386 kts 20°
2026-05-07 19:25 49.85473 6.12593 13563 ft 390 kts 17°
2026-05-07 19:25 49.88155 6.13241 14163 ft 391 kts 359°
2026-05-07 19:26 49.90852 6.13183 14807 ft 393 kts 358°
2026-05-07 19:26 49.93597 6.13125 15401 ft 396 kts 358°
2026-05-07 19:26 49.96368 6.13089 15997 ft 399 kts 358°
2026-05-07 19:26 49.99160 6.13073 16584 ft 402 kts 358°
2026-05-07 19:27 50.01975 6.13074 17169 ft 405 kts 358°
2026-05-07 19:27 50.04808 6.13082 17742 ft 408 kts 359°
2026-05-07 19:27 50.07662 6.13094 18312 ft 411 kts 359°
2026-05-07 19:27 50.10543 6.13108 18811 ft 414 kts 359°
2026-05-07 19:28 50.13436 6.13122 19313 ft 416 kts 359°
2026-05-07 19:28 50.16314 6.13136 19789 ft 419 kts 358°
2026-05-07 19:28 50.19244 6.13150 20271 ft 422 kts 358°
2026-05-07 19:28 50.22199 6.13164 20757 ft 425 kts 358°
2026-05-07 19:29 50.25168 6.13178 21067 ft 429 kts 358°
2026-05-07 19:29 50.28159 6.13191 21059 ft 428 kts 359°
2026-05-07 19:29 50.31140 6.13360 21066 ft 429 kts
2026-05-07 19:29 50.34092 6.14034 21081 ft 430 kts
2026-05-07 19:30 50.37048 6.14850 21079 ft 431 kts
2026-05-07 19:30 50.39998 6.15680 21075 ft 431 kts
2026-05-07 19:30 50.42917 6.16477 21078 ft 431 kts
2026-05-07 19:30 50.45876 6.17257 21075 ft 431 kts
2026-05-07 19:31 50.48839 6.18019 21084 ft 431 kts
2026-05-07 19:31 50.51805 6.18774 21078 ft 432 kts
2026-05-07 19:31 50.54770 6.19529 21075 ft 432 kts
2026-05-07 19:31 50.57745 6.20288 21074 ft 432 kts
2026-05-07 19:32 50.60711 6.21027 21070 ft 432 kts
2026-05-07 19:32 50.63691 6.21762 21073 ft 432 kts
2026-05-07 19:32 50.66660 6.22496 21076 ft 432 kts
2026-05-07 19:32 50.69632 6.23388 21199 ft 439 kts 15°
2026-05-07 19:33 50.72484 6.25186 21729 ft 441 kts 26°
2026-05-07 19:33 50.75063 6.27745 22291 ft 443 kts 37°
2026-05-07 19:33 50.77385 6.30974 22766 ft 447 kts 42°
2026-05-07 19:33 50.79659 6.34368 23165 ft 451 kts 43°
2026-05-07 19:34 50.81937 6.37805 23573 ft 454 kts 43°
2026-05-07 19:34 50.84243 6.41262 23947 ft 457 kts 42°
2026-05-07 19:34 50.86572 6.44720 24326 ft 459 kts 42°
2026-05-07 19:34 50.88916 6.48176 24701 ft 461 kts 42°
2026-05-07 19:35 50.91251 6.51606 25044 ft 464 kts 42°
2026-05-07 19:35 50.93624 6.55093 25397 ft 466 kts 42°
2026-05-07 19:35 50.96019 6.58585 25760 ft 468 kts 40°
2026-05-07 19:35 50.98493 6.61971 26137 ft 469 kts 39°
2026-05-07 19:36 51.01018 6.65293 26548 ft 470 kts 38°
2026-05-07 19:36 51.03559 6.68594 26896 ft 472 kts 38°
2026-05-07 19:36 51.06108 6.71913 27195 ft 475 kts 38°
2026-05-07 19:36 51.08666 6.75265 27495 ft 478 kts 38°
2026-05-07 19:37 51.11222 6.78642 27826 ft 480 kts 39°
2026-05-07 19:37 51.13792 6.82059 28235 ft 480 kts 39°
2026-05-07 19:37 51.16349 6.85476 28732 ft 479 kts 39°
2026-05-07 19:37 51.18891 6.88882 29222 ft 477 kts 39°
2026-05-07 19:38 51.21396 6.92246 29698 ft 476 kts 39°
2026-05-07 19:38 51.23935 6.95659 30133 ft 476 kts 39°
2026-05-07 19:38 51.26464 6.99063 30506 ft 475 kts 39°
2026-05-07 19:38 51.28993 7.02472 30889 ft 474 kts 39°
2026-05-07 19:39 51.31515 7.05875 31267 ft 473 kts 39°
2026-05-07 19:39 51.34031 7.09276 31622 ft 473 kts 39°
2026-05-07 19:39 51.36540 7.12671 31974 ft 472 kts 39°
2026-05-07 19:39 51.38203 7.14923 32213 ft 472 kts 39°
2026-05-07 19:40 51.41517 7.19422 32680 ft 471 kts 39°
2026-05-07 19:40 51.44014 7.22815 33059 ft 469 kts 39°
2026-05-07 19:40 51.46511 7.26214 33448 ft 467 kts 39°
2026-05-07 19:40 51.48991 7.29596 33764 ft 467 kts 40°
2026-05-07 19:41 51.51467 7.32977 34040 ft 467 kts 40°
2026-05-07 19:41 51.53946 7.36367 34295 ft 467 kts 40°
2026-05-07 19:41 51.56418 7.39752 34522 ft 467 kts 40°
2026-05-07 19:41 51.58869 7.43113 34727 ft 468 kts 40°
2026-05-07 19:42 51.61345 7.46514 34928 ft 468 kts 40°
2026-05-07 19:42 51.63823 7.49923 35101 ft 469 kts 40°
2026-05-07 19:42 51.68815 7.56804 35102 ft 470 kts 40°
2026-05-07 19:43 51.73763 7.63647 35102 ft 467 kts 40°
2026-05-07 19:43 51.78647 7.70422 35103 ft 465 kts 40°
2026-05-07 19:44 51.83547 7.77238 35106 ft 464 kts 40°
2026-05-07 19:44 51.88434 7.84056 35111 ft 463 kts 40°
2026-05-07 19:45 51.93313 7.90883 35100 ft 463 kts 40°
2026-05-07 19:45 51.98192 7.97732 35108 ft 464 kts 40°
2026-05-07 19:46 52.03076 8.04608 35110 ft 465 kts 40°
2026-05-07 19:46 52.07939 8.11475 35105 ft 466 kts 40°
2026-05-07 19:47 52.12011 8.17243 35103 ft 466 kts 40°
2026-05-07 19:47 52.16910 8.24197 35109 ft 467 kts 40°
2026-05-07 19:48 52.22068 8.30626 35096 ft 467 kts 28°
2026-05-07 19:48 52.27844 8.35473 35108 ft 467 kts 26°
2026-05-07 19:49 52.32166 8.39102 35107 ft 467 kts 27°
2026-05-07 19:49 52.33609 8.40343 34997 ft 469 kts 27°
2026-05-07 19:49 52.35058 8.41598 34855 ft 470 kts 27°
2026-05-07 19:50 52.36498 8.42853 34751 ft 468 kts 27°
2026-05-07 19:50 52.37925 8.44103 34619 ft 467 kts 27°
2026-05-07 19:50 52.39355 8.45358 34459 ft 466 kts 27°
2026-05-07 19:50 52.40763 8.46595 34272 ft 465 kts 27°
2026-05-07 19:51 52.42189 8.47848 34106 ft 463 kts 27°
2026-05-07 19:51 52.43606 8.49094 33855 ft 461 kts 27°
2026-05-07 19:51 52.45020 8.50338 33598 ft 459 kts 27°
2026-05-07 19:51 52.46423 8.51572 33357 ft 457 kts 27°
2026-05-07 19:52 52.47821 8.52803 33116 ft 455 kts 27°
2026-05-07 19:52 52.49217 8.54032 32863 ft 453 kts 27°
2026-05-07 19:52 52.50603 8.55253 32604 ft 451 kts 27°
2026-05-07 19:52 52.51984 8.56469 32335 ft 450 kts 27°
2026-05-07 19:53 52.53366 8.57688 32085 ft 449 kts 27°
2026-05-07 19:53 52.54742 8.58902 31819 ft 448 kts 27°
2026-05-07 19:53 52.56117 8.60116 31504 ft 448 kts 27°
2026-05-07 19:53 52.57491 8.61330 31126 ft 449 kts 27°
2026-05-07 19:54 52.58854 8.62538 30747 ft 450 kts 27°
2026-05-07 19:54 52.60238 8.63765 30383 ft 451 kts 27°
2026-05-07 19:54 52.62849 8.66087 29599 ft 451 kts 27°
2026-05-07 19:54 52.65608 8.68543 28761 ft 450 kts 27°
2026-05-07 19:55 52.68370 8.71004 27943 ft 450 kts 27°
2026-05-07 19:55 52.71132 8.73469 27155 ft 449 kts 27°
2026-05-07 19:55 52.73649 8.75701 26444 ft 448 kts 26°
2026-05-07 19:55 52.76530 8.77629 25674 ft 446 kts 15°
2026-05-07 19:56 52.79542 8.78728 25049 ft 440 kts
2026-05-07 19:56 52.82572 8.79044 24447 ft 435 kts 358°
2026-05-07 19:56 52.85583 8.78944 23875 ft 430 kts 357°
2026-05-07 19:56 52.88564 8.78824 23216 ft 427 kts 358°
2026-05-07 19:57 52.91534 8.78749 22538 ft 424 kts 358°
2026-05-07 19:57 52.94460 8.78709 21857 ft 415 kts 359°
2026-05-07 19:57 52.97313 8.78790 21189 ft 404 kts
2026-05-07 19:57 53.00073 8.79356 20548 ft 395 kts
2026-05-07 19:58 53.02767 8.80057 19919 ft 387 kts
2026-05-07 19:58 53.05403 8.80736 19302 ft 379 kts
2026-05-07 19:58 53.07997 8.81363 18699 ft 373 kts
2026-05-07 19:58 53.10542 8.81949 18060 ft 367 kts
2026-05-07 19:59 53.13058 8.82520 17387 ft 361 kts
2026-05-07 19:59 53.15532 8.83082 16728 ft 356 kts
2026-05-07 19:59 53.17943 8.83632 16090 ft 352 kts
2026-05-07 19:59 53.20383 8.84196 15449 ft 348 kts
2026-05-07 20:00 53.22673 8.85244 14827 ft 344 kts 20°
2026-05-07 20:00 53.24916 8.86572 14211 ft 341 kts 17°
2026-05-07 20:00 53.27174 8.87729 13595 ft 337 kts 15°
2026-05-07 20:00 53.29425 8.88845 12918 ft 335 kts 16°
2026-05-07 20:01 53.31650 8.89936 12265 ft 332 kts 16°
2026-05-07 20:01 53.33851 8.91002 11712 ft 326 kts 15°
2026-05-07 20:01 53.36007 8.92038 11251 ft 318 kts 16°
2026-05-07 20:01 53.38079 8.93025 11134 ft 300 kts 16°
2026-05-07 20:02 53.40043 8.93958 11103 ft 290 kts 15°
2026-05-07 20:02 53.41992 8.94882 11111 ft 293 kts 15°
2026-05-07 20:02 53.43961 8.95818 11115 ft 294 kts 15°
2026-05-07 20:02 53.45929 8.96755 11105 ft 293 kts 15°
2026-05-07 20:03 53.47887 8.97687 11097 ft 292 kts 15°
2026-05-07 20:03 53.49846 8.98621 11100 ft 291 kts 15°
2026-05-07 20:03 53.51770 8.99539 11102 ft 290 kts 15°
2026-05-07 20:03 53.53672 9.00447 11085 ft 276 kts 15°
2026-05-07 20:04 53.55410 9.01606 11078 ft 263 kts 36°
2026-05-07 20:04 53.56786 9.03575 11107 ft 258 kts 41°
2026-05-07 20:04 53.58167 9.05480 11096 ft 257 kts 30°
2026-05-07 20:04 53.59790 9.06789 11126 ft 261 kts 24°
2026-05-07 20:05 53.61476 9.08040 11111 ft 264 kts 24°
2026-05-07 20:05 53.63145 9.09284 11096 ft 260 kts 24°
2026-05-07 20:05 53.64793 9.10513 11092 ft 256 kts 24°
2026-05-07 20:05 53.66424 9.11727 11103 ft 257 kts 24°
2026-05-07 20:06 53.68070 9.12946 11110 ft 259 kts 24°
2026-05-07 20:06 53.69705 9.14156 11116 ft 260 kts 24°
2026-05-07 20:06 53.71367 9.15386 11118 ft 261 kts 24°
2026-05-07 20:06 53.73039 9.16622 11113 ft 262 kts 24°
2026-05-07 20:07 53.74715 9.17863 11110 ft 263 kts 24°
2026-05-07 20:07 53.76394 9.19106 11110 ft 262 kts 24°
2026-05-07 20:07 53.78066 9.20345 11111 ft 262 kts 24°
2026-05-07 20:07 53.79733 9.21581 11105 ft 261 kts 24°
2026-05-07 20:08 53.81391 9.22811 11102 ft 260 kts 24°
2026-05-07 20:08 53.83043 9.24037 11102 ft 259 kts 24°
2026-05-07 20:08 53.84694 9.25263 11102 ft 258 kts 24°
2026-05-07 20:08 53.86348 9.26492 10921 ft 265 kts 24°
2026-05-07 20:09 53.88024 9.27736 10721 ft 264 kts 24°
2026-05-07 20:09 53.89736 9.29005 10245 ft 270 kts 24°
2026-05-07 20:09 53.91470 9.30288 9837 ft 273 kts 24°
2026-05-07 20:10 53.94927 9.33035 8996 ft 276 kts 38°
2026-05-07 20:10 53.96137 9.35507 8599 ft 274 kts 66°
2026-05-07 20:10 53.96528 9.38640 8218 ft 273 kts 93°
2026-05-07 20:10 53.96015 9.41727 7831 ft 274 kts 120°
2026-05-07 20:11 53.94741 9.44117 7443 ft 276 kts 146°
2026-05-07 20:11 53.92980 9.45426 7106 ft 277 kts 161°
2026-05-07 20:11 53.91141 9.46319 6728 ft 278 kts 163°
2026-05-07 20:11 53.89264 9.47167 6356 ft 279 kts 163°
2026-05-07 20:12 53.87384 9.47996 5959 ft 280 kts 163°
2026-05-07 20:12 53.85496 9.48825 5562 ft 280 kts 164°
2026-05-07 20:12 53.83614 9.49652 5178 ft 279 kts 163°
2026-05-07 20:12 53.81742 9.50470 4912 ft 276 kts 164°
2026-05-07 20:13 53.79898 9.51278 4631 ft 271 kts 164°
2026-05-07 20:13 53.78083 9.52069 4360 ft 267 kts 164°
2026-05-07 20:13 53.76296 9.52846 4101 ft 263 kts 164°
2026-05-07 20:13 53.74556 9.53600 4007 ft 253 kts 164°
2026-05-07 20:14 53.72888 9.54321 3985 ft 241 kts 163°
2026-05-07 20:14 53.71275 9.55012 3983 ft 239 kts 164°
2026-05-07 20:14 53.69647 9.55711 3999 ft 244 kts 164°
2026-05-07 20:14 53.67986 9.56427 4005 ft 247 kts 163°
2026-05-07 20:15 53.66336 9.57137 3989 ft 242 kts 164°
2026-05-07 20:15 53.64728 9.57826 3977 ft 233 kts 164°
2026-05-07 20:15 53.63185 9.58486 3975 ft 226 kts 164°
2026-05-07 20:15 53.61663 9.59137 3992 ft 226 kts 163°
2026-05-07 20:16 53.60134 9.59780 3991 ft 227 kts 163°
2026-05-07 20:16 53.58598 9.60409 3996 ft 226 kts 164°
2026-05-07 20:16 53.57064 9.61029 4000 ft 227 kts 166°
2026-05-07 20:16 53.55494 9.60978 4002 ft 240 kts 196°
2026-05-07 20:17 53.53929 9.59711 4006 ft 255 kts 207°
2026-05-07 20:17 53.52390 9.58198 4005 ft 257 kts 208°
2026-05-07 20:17 53.50861 9.56628 3994 ft 258 kts 214°
2026-05-07 20:17 53.49633 9.54438 4004 ft 258 kts 232°
2026-05-07 20:18 53.48583 9.51976 3988 ft 259 kts 233°
2026-05-07 20:18 53.47555 9.49528 3974 ft 251 kts 233°
2026-05-07 20:18 53.46600 9.47212 3971 ft 237 kts 233°
2026-05-07 20:18 53.45700 9.44992 3964 ft 223 kts 235°
2026-05-07 20:19 53.44869 9.42836 3981 ft 219 kts 232°
2026-05-07 20:19 53.43744 9.41161 3861 ft 217 kts 200°
2026-05-07 20:19 53.42287 9.40834 3598 ft 211 kts 165°
2026-05-07 20:19 53.41024 9.41917 3348 ft 202 kts 137°
2026-05-07 20:20 53.39997 9.43496 3101 ft 199 kts 133°
2026-05-07 20:20 53.39266 9.45414 2993 ft 198 kts 101°
2026-05-07 20:20 53.39333 9.47692 2993 ft 197 kts 76°
2026-05-07 20:20 53.39708 9.49868 2998 ft 196 kts 74°
2026-05-07 20:21 53.40147 9.52032 2980 ft 197 kts 64°
2026-05-07 20:21 53.40992 9.53844 2996 ft 198 kts 50°
2026-05-07 20:21 53.41878 9.55626 2986 ft 200 kts 53°
2026-05-07 20:21 53.42750 9.57452 2985 ft 201 kts 53°
2026-05-07 20:22 53.43631 9.59279 2981 ft 201 kts 53°
2026-05-07 20:22 53.44518 9.61102 2992 ft 202 kts 53°
2026-05-07 20:22 53.45406 9.62919 2993 ft 201 kts 53°
2026-05-07 20:22 53.46295 9.64738 2996 ft 201 kts 53°
2026-05-07 20:23 53.47186 9.66556 2996 ft 201 kts 53°
2026-05-07 20:23 53.48063 9.68347 2995 ft 201 kts 52°
2026-05-07 20:23 53.48948 9.70154 2995 ft 200 kts 53°
2026-05-07 20:23 53.49832 9.71958 2995 ft 200 kts 53°
2026-05-07 20:24 53.50715 9.73759 2998 ft 199 kts 53°
2026-05-07 20:24 53.51596 9.75557 2998 ft 198 kts 53°
2026-05-07 20:24 53.52452 9.77300 2954 ft 187 kts 53°
2026-05-07 20:24 53.53258 9.78940 2777 ft 177 kts 53°
2026-05-07 20:25 53.53768 9.79981 2627 ft 172 kts 53°
2026-05-07 20:25 53.54520 9.81514 2405 ft 169 kts 53°
2026-05-07 20:25 53.55267 9.83035 2171 ft 167 kts 53°
2026-05-07 20:25 53.56001 9.84530 1943 ft 166 kts 53°
2026-05-07 20:26 53.56735 9.86024 1717 ft 165 kts 53°
2026-05-07 20:26 53.57469 9.87517 1480 ft 165 kts 52°
2026-05-07 20:26 53.58179 9.88961 1248 ft 153 kts 52°
2026-05-07 20:26 53.58838 9.90298 1084 ft 143 kts 53°
2026-05-07 20:27 53.59459 9.91564 866 ft 139 kts 52°
2026-05-07 20:27 53.60091 9.92848 668 ft 142 kts 51°
2026-05-07 20:27 53.60718 9.94122 465 ft 140 kts 51°
2026-05-07 20:27 53.61336 9.95375 288 ft 140 kts 51°
2026-05-07 20:28 53.61948 9.96620 64 ft 132 kts 49°
2026-05-07 20:28 53.62480 9.97694 39 ft 90 kts 50°
2026-05-07 20:28 53.62799 9.98343 42 ft 64 kts 50°
2026-05-07 20:28 53.63037 9.98826 45 ft 41 kts 54°
2026-05-07 20:29 53.63092 9.99122 45 ft 8 kts 89°
2026-05-07 20:29 53.63088 9.99206 46 ft 8 kts 100°
2026-05-07 20:29 53.63084 9.99299 46 ft 8 kts 87°
2026-05-07 20:29 53.63095 9.99388 46 ft 8 kts 68°
2026-05-07 20:30 53.63131 9.99480 45 ft 11 kts 57°
2026-05-07 20:30 53.63180 9.99585 46 ft 9 kts 51°
2026-05-07 20:30 53.63211 9.99650 47 ft 1 kts 50°
2026-05-07 20:30 53.63214 9.99654 47 ft 1 kts 50°
2026-05-07 20:31 53.63216 9.99659 47 ft 0 kts 50°
2026-05-07 20:31 53.63220 9.99666 47 ft 2 kts 50°
2026-05-07 20:31 53.63237 9.99700 46 ft 6 kts 48°
2026-05-07 20:31 53.63274 9.99755 47 ft 9 kts 44°
2026-05-07 20:32 53.63318 9.99842 47 ft 11 kts 50°
2026-05-07 20:32 53.63370 9.99946 47 ft 12 kts 50°
2026-05-07 20:32 53.63421 10.00052 47 ft 11 kts 51°
2026-05-07 20:32 53.63444 10.00174 46 ft 11 kts 84°
2026-05-07 20:33 53.63450 10.00287 47 ft 2 kts 86°
2026-05-07 20:33 53.63450 10.00307 47 ft 1 kts 86°
2026-05-07 20:33 53.63450 10.00308 47 ft 0 kts 86°